Location: Biçisarri
(42.4820°N, 1.4605°E)
Time: 16:17:49
(UTC+00:00)

Cosmos 2098 Rocket - Pass Details

Date: 21 November 2025
Orbit: 350 x 871 km, 82.9° (Epoch: 12 December)

Event Time Altitude Azimuth Distance (km) Brightness Sun altitude
Rises 06:17:43 0° 355° (N) 2,917 6.3 -6.7°
Reaches altitude 10° 06:19:50 10° 359° (N) 2,086 5.5 -6.4°
Maximum altitude 06:24:30 64° 81° (E) 812 4.0 -5.6°
Drops below altitude 10° 06:29:51 10° 163° (SSE) 2,379 6.7 -4.7°
Sets 06:32:24 0° 166° (SSE) 3,362 7.4 -4.2°
